Regional Weather Roundup
Issued by NWS

Home | Current Version | Previous Version | Text Only | Print | Product List | Glossary Off
Versions: 1 2 3 4 5 6 7 8 9 10 11 12 13 14 15 16 17 18 19 20 21 22 23 24 25 26 27 28 29 30 31 32 33 34 35 36 37 38 39 40 41 42 43 44 45 46 47 48 49 50

000
ASUS43 KLSX 242259
RWRMO

WEATHER SUMMARY FOR MISSOURI
NATIONAL WEATHER SERVICE SPRINGFIELD MO
600 PM CDT SUN MAY 24 2015

NOTE: "FAIR" INDICATES FEW OR NO CLOUDS BELOW 12,000 FEET WITH NO
       SIGNIFICANT WEATHER AND/OR OBSTRUCTIONS TO VISIBILITY.
       CURRENT SKY AND/OR WEATHER CONDITIONS ARE NOT AVAILABLE FOR
       CHILLICOTHE AND FARMINGTON.

MOZ001>031-035>038-043-044-053-054-250000-
...NORTHERN AND WESTERN MISSOURI...

CITY           SKY/WX    TMP DP  RH WIND       PRES   REMARKS
KANSAS CTY INT LGT RAIN  67  66  97 SW5       29.85S
KANSAS C DTWN  HVY RAIN  68  62  81 SW10      29.85R
LEE`S SUMMIT   LGT RAIN  66  63  90 S6        29.87R
ST JOSEPH      LGT RAIN  68  63  84 SW7       29.84S
CHILLICOTHE      N/A     67  64  90 CALM      29.85S
KIRKSVILLE     CLOUDY    72  68  88 S9        29.84F

$$
MOZ066>068-077>081-088>096-101>105-250000-
...SOUTHWEST MISSOURI...

CITY           SKY/WX    TMP DP  RH WIND       PRES   REMARKS
SPRINGFIELD    LGT RAIN  67  63  87 SE5       29.87F
JOPLIN         CLOUDY    67  65  93 NE5       29.85F

$$
MOZ032>034-039>042-045>050-055>058-069>072-250000-
...CENTRAL MISSOURI...

CITY           SKY/WX    TMP DP  RH WIND       PRES   REMARKS
COLUMBIA       CLOUDY    71  68  90 S7        29.87F
JEFFERSON CITY LGT RAIN  70  67  90 S5        29.87S
ROLLA          HVY RAIN  66  62  87 SW15G38   29.91R FOG
SEDALIA        CLOUDY    70  63  78 SW7       29.88F
OSAGE BEACH    CLOUDY    70  64  83 SW8       29.89S

$$
MOZ051-052-059>065-250000-
...EAST CENTRAL MISSOURI...

CITY           SKY/WX    TMP DP  RH WIND       PRES   REMARKS
ST LOUIS INTL  CLOUDY    83  64  52 SE23      29.91S
SPIRIT OF STL  PTSUNNY   82  65  56 S10G18    29.88S
ST CHARLES     PTSUNNY   83  65  54 S23G31    29.88S

$$
MOZ072>076-082>087-097>100-106>115-250000-
...SOUTH CENTRAL AND SOUTHEAST MISSOURI...

CITY           SKY/WX    TMP DP  RH WIND       PRES   REMARKS
CAPE GIRARDEAU PTSUNNY   83  66  56 S14       29.94F
FARMINGTON     PTSUNNY   79  66  65 S14G23    29.98S
POPLAR BLUFF   PTSUNNY   81  65  58 S13       29.91F
WEST PLAINS    CLOUDY    74  65  73 S8        29.91F

$$



USA.gov is the U.S. government's official web portal to all federal, state and local government web resources and services.